Weather in Viselki

Russia / Krasnodar Krai     45°34′48″N   39°39′19″E
temp.,
°C
wind,
m/s
gust,
m/s
humid.,
%
clouds,
%
prec.,
mm/h
press.,
hPa
HPBL,
m
14 june, mon
mon1400:00+17w118665 0.0 101211
03:00+16nnw11905 0.0 101211
06:00+17ene239023 0.0 101295
09:00+22e347236 0.0 1012628
12:00+26e455838 0.0 10111550
15:00+26ene4560100 0.0 10101311
18:00+24ene3773100 0.0 1010169
21:00+20ne4107794 0.0 1009169
15 june, tue
tue1500:00+19ne4127498 0.0 1008236
03:00+17ene5128898 2.3 1008198
06:00+18ene41189100 1.1 1007271
09:00+23ne2375100 1.1 1009545
12:00+26ene23656 0.6 10091113
15:00+26wsw33660 6.1 1009906
18:00+24wnw33760 0.8 1009471
21:00+20w22880 0.9 101013
16 june, wed
wed1600:00+18nw22900 0.0 100911
03:00+18n33953 0.0 100943
06:00+19n24945 0.0 1008130
09:00+23ene238267 1.8 1008662
12:00+26sse237464 1.8 1008760
15:00+24wsw4481100 6.3 1007237
18:00+23w3586100 0.4 1007137
21:00+20nw489718 0.4 1008248
17 june, thu
thu1700:00+18nnw389760 0.0 1008222
03:00+18wnw369786 1.6 1009216
06:00+18w4998100 7.8 1010367
09:00+18sw3498100 18.1 1012263
12:00+21wnw2482100 2.8 1013582
15:00+23wnw4577100 5.4 1014765
18:00+23nnw34790 2.2 1015485
21:00+19w34904 2.5 101662
18 june, fri
fri1800:00+17wnw35940 0.0 101787
03:00+16w33920 0.0 101842
06:00+17sw23880 0.0 101892
09:00+22sw23700 0.0 1018660
12:00+25nnw11610 0.0 10171221
15:00+26nne225913 0.0 10161403
18:00+23ne66820 0.3 1016547
21:00+19ne37940 0.3 1018150